Regional Weather Roundup
Issued by NWS

Home | Current Version | Previous Version | Text Only | Print | Product List | Glossary Off
Versions: 1 2 3 4 5 6 7 8 9 10 11 12 13 14 15 16 17 18 19 20 21 22 23 24 25 26 27 28 29 30 31 32 33 34 35 36 37 38 39 40 41 42 43 44 45 46 47 48 49 50

000
ASUS43 KDMX 241401
RWRIA

WEATHER ROUNDUP FOR IOWA
NATIONAL WEATHER SERVICE DES MOINES IA
900 AM CDT SAT JUN 24 2017

NOTE: "FAIR" INDICATES FEW OR NO CLOUDS BELOW 12,000 FEET WITH NO
SIGNIFICANT WEATHER AND/OR OBSTRUCTIONS TO VISIBILITY.

* - THESE STATIONS ARE NOT NWS STATIONS...THUS NOT UNDER NWS
QUALITY CONTROL.  THEY ALSO DO NOT REPORT WEATHER SUCH
AS PRECIPITATION OR FOG.

IAZ001>003-012>014-020>022-031>034-043>046-241500-
   NORTHWEST IOWA

CITY           SKY/WX    TMP DP  RH WIND       PRES   REMARKS
CARROLL *      SUNNY     64  43  45 NW10      30.15R
DENISON *      SUNNY     63  45  51 NW7       30.17S
LE MARS *      MOSUNNY   63  46  55 W6        30.16S
SHELDON *      SUNNY     61  43  51 W8        30.12S
SIOUX CITY     SUNNY     62  46  55 NW3       30.16S
SPENCER        SUNNY     61  45  55 W8        30.13R
STORM LAKE *   SUNNY     59  45  58 W7        30.15R
$$

IAZ055>058-069>071-079>083-090>094-241500-
   SOUTHWEST IOWA

CITY           SKY/WX    TMP DP  RH WIND       PRES   REMARKS
AUDUBON *      SUNNY     63  48  59 NW7       30.16S
CLARINDA *     SUNNY     64  48  55 VRB6      30.20R
COUNCIL BLFS * SUNNY     63  45  51 NW7       30.18R
CRESTON *      SUNNY     63  45  51 NW14      30.17R
HARLAN  *      SUNNY     63  46  55 NW8       30.19S
LAMONI         SUNNY     65  47  52 NW12      30.16R
SHENANDOAH *   SUNNY     64  48  55 NW6       30.19R
$$

IAZ047>049-059>061-072>074-084-241500-
   CENTRAL IOWA

CITY           SKY/WX    TMP DP  RH WIND       PRES   REMARKS
AMES           SUNNY     64  45  49 NW13      30.12R
BOONE *        SUNNY     63  46  55 NW12      30.12R
DES MOINES     MOSUNNY   64  45  49 NW9       30.12R
GRINNELL*      SUNNY     62  47  58 NW14      30.11R
MARSHALLTOWN   SUNNY     62  46  55 NW15      30.10R
NEWTON *       SUNNY     63  46  55 NW10G17   30.11S
PELLA *        SUNNY     64  47  54 NW20      30.12R
PERRY *          N/A     63  48  58 NW8       30.14R
$$

IAZ004>006-015-016-023>025-035-036-241500-
   NORTH CENTRAL IOWA

CITY           SKY/WX    TMP DP  RH WIND       PRES   REMARKS
ALGONA *       SUNNY     61  39  44 NW14G20   30.12R
CLARION *        N/A     61  46  59 NW15      30.11R
ESTHERVILLE    SUNNY     60  42  51 NW10      30.10R
FORT DODGE *   SUNNY     63  45  51 NW9       30.14R
MASON CITY     SUNNY     60  42  51 NW17      30.10R
FOREST CITY *    N/A     61  36  39 NW13G20   30.09R
WEBSTER CITY * SUNNY     61  43  51 NW15      30.10R
IOWA FALLS *     N/A     61  46  58 W14G21    30.11R
$$

IAZ007>011-017>019-026>030-037>042-050>054-066-241500-
   NORTHEAST IOWA

CITY           SKY/WX    TMP DP  RH WIND       PRES   REMARKS
CEDAR RAPIDS   SUNNY     63  49  60 NW12      30.06R
CLINTON *      SUNNY     64  53  67 NW14      30.03R
DUBUQUE        SUNNY     63  49  60 W13       30.02R
WATERLOO       SUNNY     61  45  55 NW15      30.06R
$$

IAZ064-065-067-068-078-241500-
   EAST CENTRAL IOWA

CITY           SKY/WX    TMP DP  RH WIND       PRES   REMARKS
DAVENPORT      SUNNY     64  52  64 W12       30.04R
IOWA CITY      SUNNY     65  48  54 NW10G20   30.08R
MUSCATINE *    SUNNY     66  52  59 NW9       30.06S
QUAD CITIES    SUNNY     67  49  52 NW13      30.04R
$$

IAZ062-063-075>077-085>089-095>099-241500-
   SOUTHEAST IOWA

CITY           SKY/WX    TMP DP  RH WIND       PRES   REMARKS
BURLINGTON     SUNNY     66  52  60 W10       30.08R
FAIRFIELD *    SUNNY     64  46  52 NW15G21   30.09R
KEOKUK *       SUNNY     66  54  63 NW9       30.09R
OSKALOOSA *      N/A     64  47  53 NW13G18   30.11R
OTTUMWA        SUNNY     65  47  52 NW13G21   30.10R
WASHINGTON *   SUNNY     64  50  59 NW15      30.09R
$$

ABBREVIATIONS USED IN REMARKS
   TC - TEMPERATURES IN CELSIUS
  WCI - WIND CHILL INDEX
   HX - HEAT INDEX
  VSB - VISIBILITY
$$





USA.gov is the U.S. government's official web portal to all federal, state and local government web resources and services.